{"data":{"norad_id":65831,"intl_designator":"2025-221J","name":"STARLINK-35337","alt_names":[],"object_type":"PAYLOAD","status":"ACTIVE","operator":null,"country":"US","launch_date":"2025-09-29","launch_site_code":"AFWTR","launch_vehicle":null,"mission":null,"orbit_class":"UNKNOWN","rcs_meters":null,"size_class":null,"mass_kg":null,"dimensions":null,"purposes":["comms"],"wikipedia_slug":null,"has_3d_model":false,"image_url":null,"decayed_at":null,"tle_current":{"epoch":"2026-05-25T02:53:44.678400Z","epoch_age_seconds":75065,"freshness":"FRESH","line1":"1 65831U 25221J   26145.12065600  .00027147  00000+0  81173-3 0  9996","line2":"2 65831  53.1607  92.7421 0000996  73.7391 286.3721 15.34398048 37796","mean_motion":15.34398048,"eccentricity":9.96e-5,"inclination_deg":53.1607,"raan_deg":92.7421,"arg_perigee_deg":73.7391,"mean_anomaly_deg":286.3721,"bstar":0.00081173,"rev_number":3779,"period_min":93.84787747071,"perigee_km":462.02769370284,"apogee_km":463.3903902344,"semimajor_km":6840.8460419686,"source":"CELESTRAK","updated_at":"2026-05-25T13:38:20.943304Z"}}}